This is the latest recevied weather packets stored in our database for station/object K5BOU. If no packets are shown the sender has not sent any weather packets the latest 10 day(s).
| Time | Temp. | Humidity | Pressure | Rain* | Wind** | Luminosity | Snow |
|---|---|---|---|---|---|---|---|
| 1777236674 | 29.44° C | 80% | 1006.1 hPa | 0 mm | - | 612 W/m² | - |
| 1777236369 | 30° C | 81% | 1006 hPa | 0 mm | - | 607 W/m² | - |
| 1777236065 | 29.44° C | 81% | 1006.1 hPa | 0 mm | - | 688 W/m² | - |
| 1777235761 | 30° C | 81% | 1006.2 hPa | 0 mm | - | 431 W/m² | - |
| 1777235459 | 30° C | 82% | 1006.1 hPa | 0 mm | - | 663 W/m² | - |
| 1777235155 | 29.44° C | 82% | 1006.3 hPa | 0 mm | - | 327 W/m² | - |
| 1777234851 | 29.44° C | 82% | 1006.4 hPa | 0 mm | - | 371 W/m² | - |
| 1777234547 | 29.44° C | 82% | 1006.4 hPa | 0 mm | - | 367 W/m² | - |
| 1777234246 | 29.44° C | 82% | 1006.6 hPa | 0 mm | - | 323 W/m² | - |
| 1777233943 | 29.44° C | 82% | 1006.6 hPa | 0 mm | - | 363 W/m² | - |
| 1777233640 | 29.44° C | 83% | 1006.6 hPa | 0 mm | - | 452 W/m² | - |
| 1777233339 | 28.89° C | 84% | 1006.9 hPa | 0 mm | - | 501 W/m² | - |
| 1777233035 | 29.44° C | 83% | 1006.6 hPa | 0 mm | - | 389 W/m² | - |
| 1777232732 | 29.44° C | 83% | 1006.6 hPa | 0 mm | - | 551 W/m² | - |
| 1777232430 | 29.44° C | 83% | 1006.7 hPa | 0 mm | - | 473 W/m² | - |
| 1777232127 | 30° C | 81% | 1006.8 hPa | 0 mm | - | 428 W/m² | - |
| 1777231824 | 29.44° C | 81% | 1006.7 hPa | 0 mm | - | 482 W/m² | - |
| 1777231521 | 30° C | 80% | 1006.9 hPa | 0 mm | - | 442 W/m² | - |
| 1777231216 | 29.44° C | 81% | 1006.9 hPa | 0 mm | - | 759 W/m² | - |
| 1777230913 | 29.44° C | 82% | 1007.1 hPa | 0 mm | - | 373 W/m² | - |
| 1777230609 | 28.89° C | 83% | 1006.9 hPa | 0 mm | - | 421 W/m² | - |
| 1777230304 | 28.89° C | 84% | 1007.2 hPa | 0 mm | - | 291 W/m² | - |
| 1777230001 | 28.89° C | 85% | 1007.2 hPa | 0 mm | - | 354 W/m² | - |
| 1777229698 | 29.44° C | 83% | 1007.2 hPa | 0 mm | - | 214 W/m² | - |
| 1777229395 | 29.44° C | 83% | 1007.1 hPa | 0 mm | - | 381 W/m² | - |
* Rain latest hour (hover to see other rain measurements)
** Current wind speed in m/s (hover to see current wind gust speed)